[[{"header":{"parameterUnit":"m.s-1","parameterCategory":1,"la1":30.2991,"la2":30.254,"lo1":-89.0895,"lo2":-89.0444,"dx":0.0017,"dy":0.0017,"nx":28,"ny":28,"refTime":"2022-11-16T15:00:00:Z","depth":0,"parameterNumber":2,"parameterNumberName":"U-component_of_WINDS"},"data":[0,0,0,0,0,0,0,0,0,0,0,0,0,0,0,0,0,0,0,0,0,0,0,0,0,0,0,0,0,0,0,0,0,0,0,0,0,0,0,0,0,0,0,0,0,0,0,0,0,0,0,0,0,0,0,0,0,0,-1.061,-1.061,0,-1.0675,-1.0676,-1.0677,-1.0626,-1.0623,-1.0621,-1.0619,-1.0689,-1.0693,-1.0697,0,0,0,0,0,0,0,0,0,0,0,0,0,-1.0441,-1.0444,-1.0609,-1.061,-1.0611,-1.0675,-1.0676,-1.0677,-1.0626,-1.0623,-1.0621,-1.0618,-1.0688,-1.0692,-1.0697,0,0,0,0,0,0,0,0,0,0,0,0,0,-1.0511,-1.0445,-1.0609,-1.0593,-1.0593,-1.0675,-1.0676,-1.0677,-1.0627,-1.0623,-1.062,-1.0617,-1.0686,-1.0692,-1.0698,-1.08,0,0,-1.0715,-1.0718,0,0,0,0,0,0,0,0,-1.0507,-1.0517,-1.0595,-1.0595,-1.0594,-1.0639,-1.0642,-1.0718,-1.0627,-1.0614,-1.0619,-1.0615,-1.0675,-1.0682,-1.0701,-1.0803,-1.0806,-1.0716,-1.072,-1.0722,-1.0724,0,0,0,0,0,0,0,-1.0502,-1.0514,-1.0636,-1.0596,-1.0596,-1.0583,-1.059,-1.0656,-1.0662,-1.0615,-1.0611,-1.062,-1.0674,-1.0696,-1.0703,-1.0807,-1.0716,-1.0721,-1.0725,-1.0727,-1.0995,-1.0999,0,0,0,0,0,0,-1.0499,-1.051,-1.0633,-1.0638,-1.0541,-1.0589,-1.0596,-1.0628,-1.0661,-1.0663,-1.0622,-1.0617,-1.0687,-1.0696,-1.0705,-1.0827,-1.0722,-1.0727,-1.0731,-1.0992,-1.0996,-1.1,0,0,0,0,0,0,-1.0495,-1.051,-1.0631,-1.0573,-1.0587,-1.0595,-1.0631,-1.0631,-1.0652,-1.0667,-1.0668,-1.0643,-1.0685,-1.0697,-1.0776,-1.0829,-1.073,-1.0735,-1.0987,-1.0993,-1.0998,-1.1072,0,0,0,0,0,0,-1.0491,-1.0509,-1.0548,-1.0574,-1.0591,-1.0702,-1.0635,-1.0635,-1.0662,-1.0656,-1.0687,-1.0689,-1.0683,-1.0768,-1.0782,-1.0835,-1.074,-1.0983,-1.099,-1.0996,-1.1065,-1.108,-1.1092,0,0,0,0,0,-1.0485,-1.0567,-1.0551,-1.0566,-1.064,-1.0705,-1.0714,-1.0705,-1.0667,-1.0706,-1.0715,-1.0688,-1.082,-1.0776,-1.0792,-1.0848,-1.0979,-1.0988,-1.0996,-1.1059,-1.1077,-1.1092,0,0,0,0,0,0,-1.0549,-1.0571,-1.0552,-1.0646,-1.0673,-1.0696,-1.0746,-1.0724,-1.0764,-1.0757,-1.0744,-1.0752,-1.0836,-1.0849,-1.08,-1.0948,-1.0894,-1.0905,-1.0937,-1.0953,-1.0966,-1.0963,-1.0745,0,0,0,0,0,-1.0574,-1.0624,-1.064,-1.0721,-1.0736,-1.0738,-1.0766,-1.0757,-1.0785,-1.0797,-1.0812,-1.0842,-1.0889,-1.0922,-1.0967,-1.1066,-1.1072,-1.1111,-1.1125,-1.1135,-1.1147,-1.12,-1.1218,-1.1026,-1.1026,-1.1026,0,0,-1.0626,-1.0644,-1.0677,-1.0734,-1.0755,-1.0808,-1.0749,-1.0807,-1.0847,-1.0806,-1.0883,-1.0894,-1.0926,-1.1016,-1.1056,-1.103,-1.12,-1.1146,-1.1154,-1.116,-1.121,-1.1228,-1.1244,-1.1032,-1.1031,-1.103,0,0,-1.0749,-1.0767,-1.0836,-1.0857,-1.0889,-1.0889,-1.0906,-1.0931,-1.0937,-1.1012,-1.0983,-1.1029,-1.1112,-1.1136,-1.1159,-1.1288,-1.1264,-1.1302,-1.1373,-1.1425,-1.144,-1.1454,-1.1501,-1.1518,-1.1313,-1.1313,-1.1313,0,-1.0811,-1.0889,-1.0875,-1.0936,-1.0962,-1.0925,-1.0996,-1.1017,-1.1062,-1.1081,-1.1049,-1.1152,-1.1171,-1.1266,-1.1297,-1.1316,-1.1335,-1.13,-1.1439,-1.1452,-1.1465,-1.1509,-1.1527,-1.1317,-1.1317,-1.1316,-1.1316,0,-1.0963,-1.1018,-1.107,-1.1113,-1.1145,-1.121,-1.1206,-1.1239,-1.1226,-1.123,-1.1307,-1.1328,-1.1376,-1.1397,-1.1385,-1.149,-1.1473,-1.144,-1.1386,-1.1488,-1.153,-1.1546,-1.1324,-1.1322,-1.1321,-1.132,0,0,-1.1133,-1.1164,-1.1184,-1.1203,-1.1233,-1.1275,-1.1338,-1.1384,-1.1413,-1.1444,-1.1497,-1.1567,-1.1536,-1.1562,-1.1552,-1.1598,-1.1699,-1.156,-1.156,-1.1586,-1.1817,-1.1843,-1.1863,-1.1682,-1.1685,-1.1688,-1.1814,0,-1.1258,-1.1367,-1.1355,-1.146,-1.151,-1.1475,-1.1529,-1.1554,-1.1558,-1.1601,-1.1606,-1.1656,-1.1612,-1.1627,-1.167,-1.1678,-1.1746,-1.1668,-1.1733,-1.1735,-1.1729,-1.1884,-1.1912,-1.2031,-1.183,-1.1833,-1.1835,0,-1.142,-1.1456,-1.1565,-1.1586,-1.1607,-1.1657,-1.1697,-1.1738,-1.1765,-1.1765,-1.1792,-1.1774,-1.1837,-1.1778,-1.1865,-1.1813,-1.1838,-1.1845,-1.1849,-1.1858,-1.1794,-1.1898,-1.2068,-1.2087,-1.1861,-1.1859,-1.1857,0,-1.1535,-1.1609,-1.1684,-1.1701,-1.1728,-1.1763,-1.1776,-1.1799,-1.1827,-1.1862,-1.188,-1.1922,-1.1946,-1.1979,-1.1972,-1.193,-1.206,-1.2002,-1.2063,-1.2063,-1.2095,-1.2094,-1.2274,-1.2107,-1.2107,-1.2106,-1.2106,0,-1.1678,-1.1747,-1.1736,-1.1783,-1.1858,-1.1843,-1.1918,-1.1926,-1.1946,-1.1994,-1.1964,-1.201,-1.1996,-1.2041,-1.2035,-1.2109,-1.2119,-1.2121,-1.2119,-1.2125,-1.2125,-1.2144,-1.2136,-1.2111,-1.211,-1.2109,-1.2108,0,-1.182,-1.1815,-1.1895,-1.1912,-1.1918,-1.1973,-1.1988,-1.2032,-1.2032,-1.2093,-1.2106,-1.2107,-1.2158,-1.2153,-1.221,-1.2206,-1.2297,-1.2284,-1.2288,-1.2286,-1.2349,-1.2344,-1.2549,-1.2576,-1.239,-1.2391,-1.2393,0,-1.1913,-1.1965,-1.1987,-1.2016,-1.2031,-1.2079,-1.2106,-1.2092,-1.2122,-1.2155,-1.2195,-1.2242,-1.228,-1.2362,-1.2368,-1.2411,-1.2401,-1.2469,-1.2407,-1.2411,-1.2404,-1.2402,-1.2407,-1.2483,-1.2485,-1.2487,-1.2488,0,-1.2079,-1.2074,-1.2115,-1.2155,-1.2189,-1.222,-1.2248,-1.2273,-1.2262,-1.2297,-1.2348,-1.2377,-1.2433,-1.2481,-1.2522,-1.2534,-1.251,-1.2507,-1.2524,-1.2532,-1.2533,-1.2535,-1.2324,-1.2503,-1.2502,-1.2501,-1.25,-1.2499,-1.2201,-1.2245,-1.2268,-1.2314,-1.2333,-1.2359,-1.2401,-1.2406,-1.2448,-1.2493,-1.2481,-1.2539,-1.2562,-1.2613,-1.2629,-1.2674,-1.2649,-1.2673,-1.268,-1.2687,-1.2695,-1.2523,-1.2681,-1.2681,-1.268,-1.268,-1.2679,0,-1.2368,-1.2379,-1.2422,-1.2461,-1.2498,-1.2468,-1.2497,-1.253,-1.2581,-1.2604,-1.2641,-1.2699,-1.2744,-1.2752,-1.2796,-1.283,-1.282,-1.2842,-1.2841,-1.2844,-1.2714,-1.2696,-1.2849,-1.2849,-1.2849,-1.2849,-1.2849,-1.2849,-1.2459,-1.2532,-1.2529,-1.2611,-1.2622,-1.2678,-1.2697,-1.2721,-1.2739,-1.2805,-1.2842,-1.2846,-1.2863,-1.2907,-1.2947,-1.2948,-1.2967,-1.2994,-1.2991,-1.287,-1.2853,-1.2837,-1.282,-1.2997,-1.2998,-1.3118,-1.3119,-1.312]},{"header":{"parameterUnit":"m.s-1","parameterCategory":1,"la1":30.2991,"la2":30.254,"lo1":-89.0895,"lo2":-89.0444,"dx":0.0017,"dy":0.0017,"nx":28,"ny":28,"refTime":"2022-11-16T15:00:00:Z","depth":0,"parameterNumber":3,"parameterNumberName":"V-component_of_WINDS"},"data":[0,0,0,0,0,0,0,0,0,0,0,0,0,0,0,0,0,0,0,0,0,0,0,0,0,0,0,0,0,0,0,0,0,0,0,0,0,0,0,0,0,0,0,0,0,0,0,0,0,0,0,0,0,0,0,0,0,0,-7.9406,-7.9408,0,-7.9573,-7.9575,-7.9577,-7.9471,-7.9466,-7.9461,-7.9457,-7.9621,-7.9629,-7.9638,0,0,0,0,0,0,0,0,0,0,0,0,0,-7.8989,-7.8997,-7.9406,-7.9408,-7.941,-7.9573,-7.9575,-7.9577,-7.9472,-7.9466,-7.946,-7.9455,-7.9618,-7.9628,-7.9639,0,0,0,0,0,0,0,0,0,0,0,0,0,-7.9164,-7.9,-7.9406,-7.9378,-7.9377,-7.9572,-7.9575,-7.9578,-7.9473,-7.9466,-7.9459,-7.9452,-7.9614,-7.9627,-7.9641,-7.9871,0,0,-7.9682,-7.9687,0,0,0,0,0,0,0,0,-7.9155,-7.918,-7.938,-7.938,-7.9379,-7.9494,-7.9488,-7.9676,-7.9475,-7.9437,-7.9457,-7.9448,-7.9584,-7.9599,-7.9647,-7.9879,-7.9886,-7.9683,-7.9691,-7.9697,-7.97,0,0,0,0,0,0,0,-7.9143,-7.9172,-7.9472,-7.9383,-7.9383,-7.9354,-7.9371,-7.9523,-7.9549,-7.9439,-7.9432,-7.9454,-7.9582,-7.9634,-7.965,-7.9888,-7.9682,-7.9694,-7.9703,-7.9708,-8.0315,-8.0323,0,0,0,0,0,0,-7.9134,-7.9163,-7.9467,-7.9477,-7.9247,-7.9368,-7.9386,-7.9465,-7.9548,-7.9553,-7.946,-7.9448,-7.9615,-7.9634,-7.9655,-7.993,-7.9697,-7.9709,-7.9717,-8.0307,-8.0317,-8.0326,0,0,0,0,0,0,-7.9125,-7.9162,-7.946,-7.9318,-7.9354,-7.9383,-7.9471,-7.9472,-7.9523,-7.9563,-7.9566,-7.9508,-7.961,-7.9636,-7.9818,-7.9934,-7.9715,-7.9727,-8.0298,-8.031,-8.0321,-8.0481,0,0,0,0,0,0,-7.9114,-7.916,-7.9249,-7.9321,-7.9362,-7.9623,-7.9479,-7.948,-7.9548,-7.9534,-7.9609,-7.9615,-7.9606,-7.9799,-7.9832,-7.9948,-7.9738,-8.0287,-8.0303,-8.0318,-8.0466,-8.0498,-8.0525,0,0,0,0,0,-7.9099,-7.9287,-7.9255,-7.9292,-7.9475,-7.963,-7.9653,-7.9641,-7.9557,-7.9647,-7.9672,-7.9612,-7.9916,-7.9818,-7.9854,-7.9977,-8.028,-8.0299,-8.0316,-8.0453,-8.0491,-8.0524,0,0,0,0,0,0,-7.9226,-7.9295,-7.9261,-7.9477,-7.9549,-7.9612,-7.9724,-7.9683,-7.9778,-7.9761,-7.9739,-7.9757,-7.9948,-7.998,-7.987,-8.0203,-8.0084,-8.0111,-8.0176,-8.0213,-8.0241,-8.0229,-7.9749,0,0,0,0,0,-7.9279,-7.9402,-7.9455,-7.964,-7.9678,-7.9696,-7.9763,-7.9747,-7.982,-7.9849,-7.9887,-7.9958,-8.0068,-8.0142,-8.0247,-8.047,-8.0484,-8.0572,-8.0601,-8.0625,-8.0648,-8.0767,-8.0806,-8.0386,-8.0385,-8.0385,0,0,-7.939,-7.9443,-7.9521,-7.9667,-7.9721,-7.9846,-7.9722,-7.9859,-7.9951,-7.9869,-8.0044,-8.0074,-8.0151,-8.0355,-8.0446,-8.0388,-8.0767,-8.0648,-8.0667,-8.0677,-8.0789,-8.0829,-8.0865,-8.0398,-8.0396,-8.0394,0,0,-7.9656,-7.971,-7.987,-7.9927,-8.001,-8.002,-8.0059,-8.0129,-8.0147,-8.0322,-8.0263,-8.037,-8.0562,-8.0619,-8.0673,-8.096,-8.0909,-8.0994,-8.1148,-8.1264,-8.1297,-8.1326,-8.1428,-8.1465,-8.1017,-8.1018,-8.1018,0,-7.9783,-7.9972,-7.9957,-8.01,-8.0165,-8.0098,-8.0259,-8.0313,-8.0426,-8.0471,-8.0404,-8.0644,-8.0691,-8.0906,-8.0976,-8.1023,-8.1064,-8.0986,-8.1294,-8.1323,-8.135,-8.1447,-8.1485,-8.1027,-8.1026,-8.1025,-8.1024,0,-8.0123,-8.0254,-8.0373,-8.0486,-8.0564,-8.0715,-8.0721,-8.0802,-8.0779,-8.0795,-8.0974,-8.1028,-8.1142,-8.1191,-8.117,-8.1404,-8.1365,-8.1297,-8.1177,-8.14,-8.1491,-8.1528,-8.1042,-8.1038,-8.1035,-8.1033,0,0,-8.0474,-8.0577,-8.0621,-8.0671,-8.0758,-8.0858,-8.1004,-8.1118,-8.1187,-8.1266,-8.1387,-8.1551,-8.1488,-8.155,-8.1534,-8.1636,-8.1859,-8.1555,-8.1556,-8.1609,-8.2118,-8.2169,-8.2213,-8.1825,-8.1832,-8.1838,-8.2112,0,-8.0746,-8.1005,-8.0995,-8.1236,-8.1356,-8.1294,-8.1421,-8.1487,-8.1505,-8.1608,-8.1627,-8.1744,-8.1652,-8.1689,-8.1787,-8.1811,-8.1961,-8.1791,-8.1936,-8.1941,-8.1919,-8.226,-8.2314,-8.2571,-8.2147,-8.2153,-8.2157,0,-8.1097,-8.1191,-8.1444,-8.1513,-8.1562,-8.1678,-8.178,-8.188,-8.1952,-8.1958,-8.2027,-8.1994,-8.214,-8.2016,-8.2215,-8.21,-8.2158,-8.2179,-8.2188,-8.2201,-8.2063,-8.2282,-8.2652,-8.2691,-8.2213,-8.2208,-8.2204,0,-8.1328,-8.1516,-8.1692,-8.1737,-8.1821,-8.1903,-8.1942,-8.2007,-8.2075,-8.2164,-8.2207,-8.2311,-8.2368,-8.2448,-8.2443,-8.2353,-8.2645,-8.2521,-8.2652,-8.2653,-8.2717,-8.2713,-8.3102,-8.2755,-8.2754,-8.2753,-8.2752,0,-8.1632,-8.1789,-8.1797,-8.1906,-8.2079,-8.2065,-8.2237,-8.2266,-8.2324,-8.2435,-8.2386,-8.249,-8.2478,-8.2582,-8.2579,-8.2744,-8.2769,-8.2777,-8.2774,-8.2782,-8.2781,-8.2819,-8.2802,-8.2763,-8.2761,-8.2759,-8.2757,0,-8.1919,-8.1931,-8.2119,-8.2183,-8.2203,-8.2328,-8.2382,-8.2483,-8.2497,-8.2638,-8.267,-8.2692,-8.2812,-8.2815,-8.2952,-8.2949,-8.3151,-8.3128,-8.3128,-8.3123,-8.3255,-8.3242,-8.3682,-8.3739,-8.3355,-8.3359,-8.3362,0,-8.2113,-8.2233,-8.231,-8.2382,-8.2426,-8.2543,-8.2612,-8.2602,-8.2677,-8.2767,-8.2857,-8.2973,-8.3066,-8.326,-8.3286,-8.3391,-8.337,-8.3516,-8.3385,-8.3388,-8.3371,-8.3365,-8.3376,-8.3542,-8.3547,-8.355,-8.3553,0,-8.2454,-8.2454,-8.2559,-8.2666,-8.2751,-8.2834,-8.291,-8.2971,-8.2969,-8.3055,-8.3179,-8.325,-8.3391,-8.3506,-8.3607,-8.3643,-8.3598,-8.3594,-8.363,-8.3639,-8.3634,-8.3638,-8.3198,-8.3584,-8.3581,-8.3579,-8.3577,-8.3576,-8.2701,-8.2804,-8.2875,-8.2992,-8.3049,-8.3122,-8.322,-8.3247,-8.3351,-8.3466,-8.3453,-8.359,-8.3657,-8.3788,-8.3833,-8.3938,-8.3887,-8.3939,-8.3952,-8.3965,-8.3979,-8.3617,-8.3956,-8.3955,-8.3954,-8.3953,-8.3953,0,-8.304,-8.3082,-8.319,-8.33,-8.3392,-8.3343,-8.3425,-8.3504,-8.3626,-8.3693,-8.3786,-8.3927,-8.4038,-8.4073,-8.418,-8.4257,-8.4239,-8.4286,-8.428,-8.4289,-8.4019,-8.3977,-8.4299,-8.4299,-8.4299,-8.4299,-8.4298,-8.4298,-8.3227,-8.3399,-8.3408,-8.3606,-8.3647,-8.3783,-8.3834,-8.3899,-8.3953,-8.4114,-8.4207,-8.4229,-8.4283,-8.4393,-8.4492,-8.4499,-8.4541,-8.4596,-8.4595,-8.4342,-8.4308,-8.4275,-8.4235,-8.4606,-8.4606,-8.4855,-8.4858,-8.486]}]]